Hourly Data Report for October 17, 2014

All times are specified in Local Standard Time (LST). Add 1 hour to adjust for Daylight Saving Time where and when it is observed.

ARVIAT A
NUNAVUT

61°05'38.000" N
94°04'18.000" W
10.40 m
2300427
71174
YEK

Download Data

Hourly Data (October 2014)
Hourly Data Report for October 17, 2014
Temp Definition
°C
Dew Point Temp Definition
°C
Rel Hum Definition
%
Wind Dir Definition
10's deg

Wind Spd Definition
km/h
Visibility Definition
km
Stn Press Definition
kPa
Hmdx Definition


Wind Chill Definition


Weather Definition


TIME
00:00 Legend Double Dagger -7.1 -7.6 96 33 17 16.1 102.72   -14 LegendNANA
01:00 Legend Double Dagger -7.2 -7.6 97 32 17 16.1 102.77   -14 LegendNANA
02:00 Legend Double Dagger -6.8 -7.1 98 35 21 16.1 102.79   -14 LegendNANA
03:00 Legend Double Dagger -5.9 -6.7 94 33 22 16.1 102.80   -13 LegendNANA
04:00 Legend Double Dagger -5.5 -6.7 91 33 18 16.1 102.82   -12 LegendNANA
05:00 Legend Double Dagger -5.6 -7.5 87 32 17 16.1 102.84   -12 LegendNANA
06:00 Legend Double Dagger -5.8 -7.0 91 30 18 16.1 102.85   -12 LegendNANA
07:00 Legend Double Dagger -4.9 -6.2 91 31 17 16.1 102.84   -11 LegendNANA
08:00 Legend Double Dagger -4.2 -6.1 87 32 15 16.1 102.85   -10 LegendNANA
09:00 Legend Double Dagger -3.7 -5.9 85 33 15 16.1 102.86   -9 LegendNANA
10:00 Legend Double Dagger -3.7 -5.3 89 32 17 16.1 102.87   -9 LegendNANA
11:00 Legend Double Dagger -3.4 -5.1 88 32 18 16.1 102.87   -9 LegendNANA
12:00 Legend Double Dagger -3.0 -5.2 85 32 15 16.1 102.85   -8 LegendNANA
13:00 Legend Double Dagger -2.9 -5.3 84 32 11 16.1 102.82   -7 LegendNANA
14:00 Legend Double Dagger -3.0 -4.6 89 30 11 16.1 102.82   -7 LegendNANA
15:00 Legend Double Dagger -2.8 -5.3 83 34 8 16.1 102.81   -6 LegendNANA
16:00 Legend Double Dagger -3.1 -4.7 89 32 18 16.1 102.79   -9 LegendNANA
17:00 Legend Double Dagger -3.6 -4.4 94 30 17 16.1 102.78   -9 Freezing Rain
18:00 Legend Double Dagger -4.6 -5.1 96 30 18 16.1 102.77   -11 LegendNANA
19:00 Legend Double Dagger -4.8 -5.2 97 30 15 12.9 102.76   -10 LegendNANA
20:00 Legend Double Dagger -4.6 -5.2 96 30 15 16.1 102.68   -10 LegendNANA
21:00 Legend Double Dagger -4.5 -5.2 95 31 13 16.1 102.66   -10 LegendNANA
22:00 Legend Double Dagger -4.5 -5.3 94 30 11 16.1 102.62   -9 LegendNANA
23:00 Legend Double Dagger -4.4 -5.5 92 29 8 16.1 102.56   -8 LegendNANA

Notes on Data Quality.

Legend

  • E = Estimated
  • M = Missing
  • NA = Not Available
  • ‡ = Partner data that is not subject to review by the National Climate Archives
Date modified: